Home > Time Zones > World Clock > Weather > Yemen > Sana > Past weeks

Flag for Yemen Weather past 2 weeks in Sana, Yemen

Now
57 °F

Clear.


Feels Like: 57 °F
Forecast: 58 / 79 °F
Wind: 3 mph from South

Location: Sana'A Airport


UV Index: 10 (Very high)

Visibility: 10 mi


Pressure: 30.30 "Hg

Humidity: 25%

Dew point: 21 °F

Location of SanaLocation

Historic Weather in Sana

°F

Sana temperature yesterday

Maximum temperature yesterday: 79 °F (at 2:00 PM)
Minimum temperature yesterday: 55 °F (at 6:00 AM)
Average temperature yesterday: 69 °F

Past Weeks' High & Low Weather Summary

 TemperatureHumidityPressure
High84 °F (Apr 16, 3:00 PM)68% (Apr 12, 4:00 AM)30.42 "Hg (Apr 12, 4:00 AM)
Low52 °F (Apr 13, 6:00 AM)7% (Apr 18, 6:00 PM)30.18 "Hg (Apr 15, 9:00 PM)
Average69 °F21%30.31 "Hg
* Reported Apr 9 3:00 AM — Apr 24 3:00 AM, Sana, Weather by CustomWeather, © 2014

Note: Actual official high and low records may vary slightly from our data, if they occured in-between our weather recording intervals... More about our weather records

Advertising

Historic Weather Conditions — Data for Previous 24 hours

 ConditionsComfort  
Time TempWeatherWind HumidityBarometerVisibility
3:00 AM
Apr 24
59 °FPassing clouds.5 mph23%30.27 "HgN/A
2:00 AM59 °FClear.2 mph21%30.30 "Hg10 mi
1:00 AM61 °FClear.1 mph22%30.33 "Hg10 mi
12:00 AM59 °FPassing clouds.5 mph20%30.33 "HgN/A
11:00 PM
Apr 23
63 °FClear.2 mph16%30.36 "Hg10 mi
10:00 PM66 °FPassing clouds.5 mph17%30.36 "HgN/A
9:00 PM66 °FPassing clouds.5 mph11%30.36 "HgN/A
8:00 PM68 °FClear.3 mph30%30.33 "Hg10 mi
7:00 PM72 °FPassing clouds.7 mph16%30.33 "HgN/A
6:00 PM75 °FScattered clouds.10 mph14%30.30 "HgN/A
5:00 PM77 °FScattered clouds.8 mph12%30.30 "HgN/A
4:00 PM79 °FScattered clouds.8 mph12%30.30 "HgN/A
3:00 PM79 °FScattered clouds.9 mph11%30.30 "HgN/A
2:00 PM79 °FScattered clouds.10 mph12%30.30 "HgN/A
1:00 PM77 °FPartly sunny.5 mph11%30.33 "HgN/A
12:00 PM75 °FPartly sunny.6 mph13%30.36 "HgN/A
11:00 AM75 °FPartly sunny.5 mph13%30.39 "HgN/A
10:00 AM73 °FPartly sunny.5 mph11%30.39 "HgN/A
9:00 AM70 °FPartly sunny.3 mph11%30.39 "HgN/A
8:00 AM66 °FScattered clouds.3 mph11%30.39 "HgN/A
7:00 AM59 °FPassing clouds.3 mph17%30.36 "HgN/A
6:00 AM55 °FSunny.5 mph18%30.36 "Hg10 mi
5:00 AM59 °FClear.No wind17%30.33 "Hg10 mi
4:00 AM63 °FClear.5 mph11%30.33 "Hg10 mi
Weather by CustomWeather, © 2014

See weather overview